Location: ??????
(41.3164°N, 22.6615°E)
Time: 01:13:24
(UTC+00:00)

STRAND 1 - Pass Details

Date: 02 July 2022
Orbit: 767 x 781 km, 98.4° (Epoch: 08 August)

Event Time Altitude Azimuth Distance (km) Brightness Sun altitude
Rises 19:07:01 0° 354° (N) 3,267 ? -9.9°
Reaches altitude 10° 19:10:26 10° 330° (NNW) 2,331 ? -10.3°
Maximum altitude 19:13:00 14° 300° (WNW) 2,054 ? -10.7°
Drops below altitude 10° 19:15:34 10° 270° (W) 2,319 ? -11.0°
Sets 19:18:58 0° 246° (WSW) 3,238 ? -11.5°
